Wind_Speed
51 51 50 49 47 45 43 41 39 37 36 34 33 31 30 29 28 27 26 26 26 26 26 26 26 26 26 26 26 26 27 27 27 27 28 28 27 27 26 26 25 24 23 23 22 21 20 19 19 18 17 17 16 15 15 14 13 12 12 11 10 9 7 6 4 3 2 1 0 0 1 1 1 1 1 1 1 1 1 1 1 2 1 2 2 3 4 4
51 51 51 50 48 46 44 42 40 38 37 35 34 32 31 30 29 28 27 26 26 26 26 25 25 24 24 24 24 24 25 25 26 26 26 27 26 26 25 25 25 24 24 24 23 23 22 21 20 20 19 18 17 17 17 16 15 14 14 13 11 10 9 7 6 4 3 1 1 1 1 1 1 1 1 1 1 1 1 1 2 2 2 3 3 4 4 5
51 52 51 50 49 48 46 43 41 39 38 36 35 34 32 31 29 28 27 26 26 26 25 25 24 24 24 23 23 23 24 24 24 25 25 25 25 25 24 24 24 24 24 24 24 24 23 22 22 21 21 20 19 19 18 17 17 17 17 15 13 11 10 9 7 6 4 3 2 2 2 2 2 2 2 2 2 2 2 2 2 3 3 3 3 4 5 5
51 53 52 51 50 49 48 45 42 40 39 38 36 35 33 32 30 28 28 27 26 26 25 25 24 24 24 23 23 23 23 23 23 23 23 24 23 23 23 24 24 24 24 24 24 24 24 24 23 22 22 21 21 20 19 19 18 18 18 17 14 13 12 10 9 8 6 4 4 3 3 3 3 3 3 3 3 3 3 3 3 3 3 4 4 4 4 5
50 53 53 52 50 49 48 46 44 42 40 39 37 36 35 33 31 29 28 27 26 25 25 25 24 24 24 24 24 23 23 23 23 23 23 23 23 23 23 23 24 23 23 23 24 24 24 24 24 24 23 22 22 21 20 20 20 20 20 18 16 15 13 12 11 9 8 6 5 5 4 4 4 4 3 4 5 4 4 4 3 3 3 4 4 4 4 5
49 52 53 52 51 50 49 47 46 44 42 40 39 37 36 35 33 31 29 27 26 25 25 25 25 24 24 24 24 24 24 24 23 23 23 23 24 24 24 24 24 24 23 23 23 24 24 24 24 24 24 23 23 22 22 21 21 21 21 20 18 17 15 13 12 11 9 8 7 7 6 5 5 5 4 5 6 5 5 5 4 4 3 4 4 4 4 4
48 51 53 53 52 51 50 49 47 45 44 42 40 39 38 36 34 32 30 28 27 26 25 25 25 25 25 25 25 25 24 24 23 24 24 24 24 24 25 25 25 24 24 24 24 24 24 24 24 24 24 24 23 23 23 23 23 22 22 21 20 19 17 15 14 12 11 10 9 9 8 7 6 6 5 6 7 6 6 6 5 5 4 4 4 4 4 5
47 50 52 52 53 52 51 50 48 47 45 43 42 40 39 38 35 33 31 30 28 27 26 26 26 26 26 26 26 26 25 25 24 24 24 24 24 25 25 25 25 25 25 25 25 25 25 25 25 25 25 24 23 23 24 24 24 24 23 22 21 20 19 17 15 14 13 12 11 11 10 9 8 7 6 8 9 8 7 7 6 6 5 5 5 5 5 5
47 48 50 52 52 52 52 50 49 48 46 44 43 42 41 39 37 35 33 31 29 28 27 27 27 26 27 27 27 27 26 26 25 25 24 24 25 25 25 25 25 25 25 25 25 25 25 25 25 25 24 24 24 24 24 25 25 24 24 24 23 21 20 18 17 16 15 14 13 13 12 11 10 9 7 9 10 9 8 8 8 7 7 6 5 6 6 6
47 48 49 51 51 51 51 50 50 48 47 45 44 43 42 41 39 37 35 32 31 29 28 28 27 27 27 28 28 28 27 26 26 26 25 25 25 25 25 25 25 25 25 25 26 26 26 25 25 25 25 25 25 25 25 25 25 25 25 25 24 23 21 20 18 17 16 15 15 14 14 13 12 11 9 9 11 11 10 9 9 8 8 7 7 6 7 7
48 49 49 50 51 51 51 50 50 49 48 46 45 44 43 42 40 38 36 34 33 31 30 29 28 28 28 28 29 29 28 28 27 26 26 25 25 25 25 25 25 25 25 25 26 26 26 26 25 26 26 26 25 25 26 26 26 26 26 25 25 24 22 21 20 19 18 17 16 16 15 15 14 13 11 11 12 12 12 11 10 10 9 8 8 8 8 8
49 50 50 51 51 52 52 51 50 49 48 47 46 45 44 43 42 40 38 36 34 33 32 30 30 29 29 29 30 29 28 29 28 27 27 26 26 25 25 25 25 25 25 26 26 26 26 26 26 26 26 26 26 26 26 26 26 26 26 26 26 25 24 22 21 20 19 18 18 17 16 16 17 15 12 12 13 13 12 12 11 10 10 9 9 9 9 9
49 51 51 51 52 52 53 52 51 51 50 49 47 46 46 45 43 42 40 38 36 35 33 32 31 30 30 30 30 29 29 29 29 28 28 27 27 26 26 26 25 25 26 26 27 27 26 26 26 26 26 26 26 26 26 26 26 26 27 27 26 26 24 23 22 21 20 20 19 19 17 17 18 16 13 13 14 13 13 12 11 11 11 10 10 10 10 10
46 50 52 52 52 53 53 53 53 52 51 50 49 48 47 46 45 43 42 40 38 37 35 34 33 32 32 31 30 30 30 30 30 29 28 28 27 27 27 26 26 26 26 27 27 27 27 27 27 27 27 27 26 26 26 26 26 26 27 27 27 26 25 24 23 22 21 21 20 20 17 18 19 16 14 14 14 13 13 12 12 12 12 11 11 11 11 11
43 47 51 53 53 53 54 54 55 54 53 52 51 50 49 48 47 45 44 42 40 39 37 36 35 34 33 32 31 31 30 30 30 30 29 29 28 27 27 27 27 27 28 28 28 28 28 28 28 28 27 27 27 27 27 27 27 27 27 28 27 27 26 25 24 23 22 22 21 20 18 18 20 16 14 14 12 13 13 12 13 13 12 12 11 11 11 12
43 44 49 52 54 54 55 55 55 55 55 54 53 52 51 50 49 47 46 44 43 41 39 38 37 36 34 33 32 31 31 31 31 31 30 29 28 28 28 27 28 28 29 29 29 29 29 29 29 29 29 29 28 28 27 27 28 27 28 28 27 27 26 25 25 24 23 22 21 21 18 18 19 16 14 13 11 12 12 12 12 12 12 11 11 11 12 13
43 44 46 50 53 55 55 56 56 56 56 55 54 53 53 51 50 49 48 46 45 43 42 41 39 38 37 35 33 33 32 32 32 32 31 31 30 29 28 28 29 29 30 31 31 31 31 30 30 31 30 30 29 29 28 28 29 28 29 28 27 27 27 26 26 24 24 23 22 21 18 16 19 16 13 12 11 11 11 11 12 11 12 11 11 12 12 13
42 44 45 46 51 54 56 56 57 57 57 56 56 55 54 53 52 51 50 49 47 46 44 43 41 40 39 37 35 35 34 33 33 33 33 32 31 30 30 30 30 31 32 32 33 33 32 32 32 32 31 31 30 29 29 30 30 29 30 29 28 28 28 27 26 25 25 23 22 21 17 15 18 16 12 12 11 10 10 12 12 12 12 12 12 13 13 14
42 43 45 45 47 51 54 56 57 57 57 57 57 57 56 55 54 53 52 51 50 49 47 46 44 43 41 39 37 36 35 35 34 34 34 33 32 32 31 31 31 32 34 34 34 34 34 34 33 33 32 31 29 30 32 32 31 30 30 29 28 28 28 28 27 26 25 24 22 20 17 16 18 16 13 13 12 11 11 13 13 13 14 14 14 14 15 16
43 42 44 45 46 48 52 55 57 58 58 58 58 57 57 57 56 55 54 53 52 51 49 47 45 44 42 40 39 38 37 36 36 35 35 34 34 34 33 33 33 34 35 36 36 35 35 35 34 33 33 32 31 33 34 32 31 31 30 29 29 28 29 30 29 28 26 25 22 20 19 17 17 17 16 15 14 12 13 15 15 15 16 16 16 16 17 17
44 43 43 45 46 47 49 52 55 56 57 58 58 58 58 57 57 57 55 54 53 52 51 49 47 46 44 43 42 40 39 38 38 37 36 36 35 35 35 34 34 35 36 37 37 36 37 36 35 35 34 33 34 35 34 31 31 31 31 30 30 30 31 30 30 29 27 26 23 22 21 19 18 19 18 18 15 14 15 16 17 18 18 18 18 18 18 18
44 44 42 43 45 46 48 50 52 54 56 57 57 58 57 57 57 57 56 56 55 54 53 51 50 48 46 45 44 43 42 40 39 39 37 37 36 37 36 36 35 36 36 37 38 39 39 38 37 36 34 35 36 35 33 32 32 32 32 32 31 31 31 32 32 30 28 27 25 24 24 21 19 20 20 20 18 16 17 18 18 19 20 20 21 21 20 20
44 46 44 42 43 46 47 48 50 52 54 55 56 57 57 57 57 57 57 57 57 56 55 53 52 51 49 48 46 45 44 43 41 40 39 38 38 38 37 37 38 37 37 38 39 40 40 40 38 37 37 37 37 35 34 33 33 33 33 33 33 32 33 35 33 30 30 29 27 27 26 23 20 21 21 21 20 18 19 20 20 20 21 22 22 21 21 21
44 46 47 44 43 44 46 46 48 49 51 53 54 55 56 56 57 57 57 58 58 57 56 55 54 53 51 50 48 47 46 45 44 42 41 40 39 39 39 39 40 38 38 39 40 41 42 41 40 39 39 39 38 36 35 34 33 34 34 34 34 34 35 36 33 32 31 31 29 29 29 26 22 23 22 22 22 20 21 22 21 22 23 23 22 22 22 22
44 46 48 47 44 43 44 46 46 47 49 51 52 54 54 55 56 57 57 58 59 58 58 57 56 55 53 52 51 50 48 47 46 44 43 42 41 41 40 40 41 40 40 40 41 42 43 42 41 41 41 40 39 37 35 35 35 35 35 36 36 36 36 36 35 34 33 33 31 31 34 30 25 24 23 23 24 22 23 23 22 24 24 23 22 22 22 22
45 45 47 49 48 44 44 45 46 46 48 49 50 52 53 54 54 56 56 58 60 60 59 58 57 56 55 54 52 51 51 50 48 47 46 45 43 43 42 41 42 42 42 42 42 43 43 42 42 42 42 41 40 38 37 36 36 37 37 37 38 38 38 37 37 35 35 35 33 33 36 35 29 25 23 24 25 24 24 23 23 25 26 25 22 21 22 23
47 45 45 48 51 49 46 44 45 46 47 47 48 50 51 52 53 54 54 56 60 60 59 59 57 56 55 54 54 53 53 52 50 49 48 47 46 45 44 44 43 43 43 43 44 43 42 42 42 43 43 42 42 40 39 38 39 39 38 38 39 39 39 38 38 37 37 37 36 35 37 39 35 26 23 25 26 25 24 24 26 28 27 26 24 23 23 23
51 49 45 46 50 52 50 47 45 46 46 46 47 48 49 50 51 52 51 54 60 60 58 58 58 57 55 54 54 55 54 52 51 51 49 48 48 47 47 46 44 44 44 44 45 44 43 42 42 43 44 44 44 43 42 41 42 41 40 40 40 40 40 39 39 39 39 40 40 38 37 41 41 30 25 27 28 26 24 24 28 30 28 26 25 25 24 23
51 52 50 47 47 50 52 51 49 47 46 45 46 47 47 48 49 49 50 54 60 61 58 58 58 58 57 56 56 55 55 54 53 52 50 50 50 49 49 48 46 46 46 46 46 46 45 44 44 44 45 46 46 46 45 44 44 42 41 41 41 41 41 41 41 41 42 42 42 41 38 40 45 37 29 30 29 27 26 26 30 31 29 27 26 26 26 25
50 51 53 51 48 47 50 53 53 51 48 47 46 46 47 48 48 48 52 56 59 60 59 58 59 58 58 57 57 57 56 56 54 53 53 52 51 50 50 49 48 48 48 47 47 47 47 46 46 46 46 47 47 47 47 47 46 44 43 43 43 43 42 43 43 43 44 44 43 44 40 39 45 43 34 32 30 28 27 28 30 31 30 29 28 28 28 28
50 50 52 52 52 50 49 51 53 53 52 50 49 48 48 48 48 50 53 54 54 58 59 58 58 58 57 57 56 56 56 56 55 54 54 53 52 52 51 51 50 50 49 49 48 48 48 48 48 47 46 46 46 47 48 48 47 46 46 45 45 45 45 45 45 44 45 45 45 46 42 40 45 44 36 33 30 27 27 29 30 31 31 31 30 31 31 31
51 51 50 50 52 53 51 51 51 51 52 53 53 52 51 51 52 53 52 48 50 57 58 56 56 57 56 56 55 54 54 55 54 53 53 53 53 52 51 51 50 49 49 49 48 48 49 49 49 48 47 47 47 48 49 49 50 49 49 48 47 46 46 45 45 46 47 47 47 48 45 44 44 43 40 38 33 28 28 30 31 32 33 32 32 33 33 33
54 53 52 50 50 52 53 53 52 51 51 51 54 55 55 57 57 52 48 46 51 56 56 53 54 54 55 55 56 55 54 54 54 53 53 52 52 52 51 51 51 50 49 50 50 49 50 51 50 50 50 49 49 49 49 49 49 49 49 48 47 46 47 48 48 49 49 49 49 49 49 47 44 43 43 41 38 34 32 33 34 34 34 33 33 34 35 35
57 56 55 53 51 50 50 51 53 54 54 52 52 55 58 60 57 51 49 50 51 52 51 49 50 51 52 53 54 53 53 54 53 52 53 53 54 54 53 53 53 51 51 51 52 51 51 52 51 51 51 50 49 48 47 47 47 48 48 49 50 49 49 51 51 52 52 51 51 51 51 49 45 45 44 41 40 38 36 36 36 35 34 35 36 37 37 37
61 60 58 56 55 53 50 50 50 52 54 54 54 57 59 57 52 51 54 55 52 50 49 48 48 48 50 50 50 50 50 51 52 51 52 53 54 54 54 54 53 51 51 52 52 52 51 52 51 50 50 49 48 47 48 48 48 49 50 52 53 52 51 53 54 54 53 53 53 52 53 50 47 48 46 43 41 40 40 39 38 37 37 38 40 39 39 39
62 63 61 59 59 57 55 54 52 50 51 52 56 61 59 52 48 50 53 53 52 51 51 53 51 50 50 49 48 47 47 48 49 49 50 51 52 53 53 53 52 51 51 51 52 52 51 51 51 49 48 47 46 47 47 48 49 50 51 52 53 52 51 53 54 54 53 56 56 54 54 50 48 49 46 43 42 41 42 41 40 40 40 41 42 41 40 40
59 61 62 62 61 60 59 58 58 56 54 53 56 58 57 53 51 50 50 51 50 50 51 53 54 52 51 50 49 48 47 47 47 48 48 48 50 51 51 51 50 50 50 48 50 52 51 51 52 50 49 48 47 47 48 48 49 51 52 52 52 52 52 53 54 55 57 60 59 56 54 50 48 49 45 42 42 41 41 42 42 42 43 43 43 43 42 42
58 59 60 60 61 60 60 60 61 61 60 60 59 55 52 54 53 50 50 51 51 51 52 53 54 53 52 52 51 50 49 49 48 48 48 48 49 49 48 49 49 47 46 44 46 51 51 50 53 54 52 51 50 50 51 50 51 53 54 54 52 53 54 54 55 57 58 61 61 58 57 55 51 48 45 44 44 42 42 44 45 46 46 46 46 45 45 45
57 59 59 59 60 59 59 60 61 61 62 64 63 57 51 51 53 53 53 52 52 53 54 55 56 55 53 53 53 53 52 52 51 50 50 50 50 48 46 47 47 46 45 44 46 49 49 48 52 55 54 53 53 53 54 54 54 54 54 54 54 54 55 55 56 57 56 60 62 60 60 59 52 48 47 47 46 44 45 46 47 49 50 50 49 48 47 47
56 58 59 60 60 59 59 59 60 62 63 64 64 62 56 52 51 53 54 55 54 53 53 55 56 56 55 55 55 54 53 53 53 52 53 53 51 49 48 48 48 47 46 47 48 49 50 50 52 56 57 56 56 55 55 54 53 52 52 53 54 54 55 56 58 58 57 59 62 62 64 61 52 49 49 48 47 47 47 49 51 51 51 51 52 50 49 49
53 56 58 60 60 60 60 61 61 62 64 64 64 64 62 59 55 52 53 54 55 53 52 52 54 56 57 57 57 56 54 53 53 53 53 53 52 50 51 51 50 50 49 50 51 50 51 53 53 56 58 58 57 54 53 52 52 51 51 54 55 54 55 57 60 61 60 61 61 62 67 62 51 49 51 49 50 50 49 52 53 53 53 52 53 53 53 52
51 52 54 58 60 60 60 62 62 62 63 63 62 62 63 63 61 58 57 56 56 55 53 51 51 52 55 57 57 57 56 54 54 54 52 51 51 51 52 52 51 52 52 53 54 53 52 54 55 56 57 58 57 55 53 53 54 53 54 55 55 56 58 59 61 63 63 64 63 63 68 63 49 47 51 50 52 53 51 53 54 55 55 54 54 55 54 55
49 50 50 53 57 59 60 62 63 64 63 62 61 62 63 63 62 61 61 61 60 59 58 55 53 52 52 52 54 55 56 55 54 54 53 51 50 50 51 51 50 51 53 54 55 55 55 56 58 58 59 60 59 58 57 56 57 58 58 57 57 59 61 61 61 62 63 66 65 64 70 65 49 46 52 52 54 55 54 54 55 55 56 56 56 56 55 56
48 49 49 49 52 55 59 61 63 64 64 63 63 63 63 63 63 63 63 63 62 63 62 61 59 58 54 52 51 52 53 53 51 50 50 52 52 50 50 50 50 50 51 53 54 55 55 56 58 59 60 62 62 60 60 60 61 62 61 59 59 59 60 61 61 61 63 64 65 66 71 65 51 46 51 53 56 58 56 56 56 56 57 57 57 57 57 58
48 49 49 49 50 53 56 59 61 62 63 64 65 63 63 64 64 64 64 64 63 63 65 65 64 64 62 59 57 55 53 52 49 46 46 48 51 51 50 50 51 50 49 50 51 52 53 54 55 57 61 64 65 63 63 62 61 61 60 58 58 57 57 58 58 60 62 61 62 66 68 63 54 51 53 55 58 60 59 58 58 57 58 58 59 60 59 61
50 50 51 51 51 52 54 55 57 59 61 63 65 65 65 66 65 65 65 66 65 63 63 65 66 68 68 66 64 62 60 56 53 50 46 43 45 46 45 45 47 47 47 47 48 50 53 54 53 55 58 62 63 62 62 62 61 60 60 58 58 57 57 57 58 60 62 60 62 65 64 63 60 56 55 56 57 60 60 60 59 59 59 59 61 62 62 63
53 53 52 52 53 54 54 54 55 56 58 60 63 65 65 65 66 67 68 67 67 65 64 64 67 69 69 68 67 66 65 62 61 58 51 48 48 46 45 44 44 44 43 43 46 48 51 53 52 52 53 54 54 54 55 57 60 60 60 60 60 59 59 60 62 63 61 63 67 65 62 64 63 58 55 55 55 56 58 58 58 58 58 59 60 62 61 60
56 54 54 54 55 55 54 53 52 52 54 56 59 61 62 62 64 67 68 67 68 68 67 66 67 68 68 68 67 68 68 67 67 64 59 58 58 56 53 52 50 49 48 47 47 49 51 52 51 52 53 51 51 51 50 52 54 55 57 57 57 57 59 61 63 63 62 66 68 64 62 65 63 58 55 54 53 53 54 56 59 59 58 57 58 59 59 59
59 58 57 57 57 56 54 53 52 53 53 54 55 57 59 60 62 64 66 66 66 69 70 69 68 68 68 68 68 68 69 70 69 67 65 64 65 64 63 61 58 57 55 53 53 53 55 55 53 54 55 53 51 50 48 49 50 50 52 52 51 53 54 57 60 61 62 65 66 63 64 66 64 61 58 56 54 54 55 58 60 59 57 57 58 60 61 61
63 61 60 60 60 58 57 56 56 56 56 56 56 57 57 58 59 60 63 64 65 66 69 70 69 68 68 69 70 70 70 70 70 70 68 68 68 68 68 66 64 63 62 60 59 59 58 57 54 53 54 53 49 48 48 49 49 50 51 51 50 50 51 54 55 55 57 60 60 60 62 65 63 59 57 56 55 57 59 61 61 60 60 61 62 64 64 65
67 66 65 65 64 62 60 59 59 59 59 59 58 57 56 56 56 56 59 61 61 61 63 65 65 65 67 68 70 71 71 71 72 72 72 72 72 71 71 70 69 69 68 67 66 66 64 61 58 56 56 54 49 48 49 49 50 51 51 51 52 52 52 53 52 51 52 54 55 56 59 61 56 51 50 52 53 55 58 61 61 61 63 65 67 68 69 70
71 70 69 69 67 66 65 64 63 64 63 60 57 56 56 56 54 55 57 58 58 57 58 59 60 61 64 66 68 70 72 73 74 74 75 76 76 75 75 74 73 73 73 71 70 70 70 69 67 65 65 62 55 52 53 54 56 57 53 50 52 54 54 54 54 53 52 53 55 57 58 56 51 49 50 51 49 50 52 53 54 56 58 62 65 66 66 67
Wind_Direction
196 194 193 192 191 191 191 191 191 192 192 192 193 193 192 192 192 193 194 194 194 194 193 192 191 191 191 192 194 195 197 199 200 203 206 208 209 210 210 212 213 215 217 219 221 222 222 222 222 221 220 220 218 218 221 220 217 218 222 220 212 209 209 211 217 221 216 217 23 337 300 297 299 305 322 340 0 7 12 3 336 316 306 292 288 295 306 315
198 197 195 193 193 192 193 192 193 194 194 194 194 195 195 194 195 195 196 196 195 195 194 193 192 192 193 194 195 197 199 201 203 206 208 210 212 212 213 215 216 217 219 220 222 223 224 224 224 223 222 222 221 220 221 221 220 220 224 226 221 216 215 217 223 231 238 250 272 284 282 274 269 266 278 287 293 305 325 332 320 315 312 308 299 297 302 307
200 199 197 196 195 194 195 196 196 197 196 197 197 197 197 197 198 197 198 198 198 197 195 194 194 193 194 195 196 198 200 202 205 207 209 212 213 214 215 216 218 219 220 221 223 224 224 224 224 224 224 224 223 223 222 222 222 222 226 229 226 222 222 223 227 236 246 255 263 273 280 271 263 256 265 271 275 287 294 299 305 308 311 311 307 303 302 303
201 201 200 198 197 196 198 198 198 199 198 198 199 199 200 200 200 200 200 200 200 199 198 197 196 196 196 197 199 200 202 204 206 208 210 212 214 215 215 217 218 219 220 221 222 224 223 223 223 224 224 224 224 224 223 223 224 225 228 230 229 227 226 227 232 239 248 257 265 271 273 269 260 253 260 268 273 281 282 289 299 305 310 313 315 311 303 301
203 203 203 201 199 199 199 199 199 199 200 200 201 201 202 202 202 203 203 202 202 202 201 200 199 200 200 200 202 203 205 207 209 211 212 214 215 216 217 218 219 219 220 221 222 223 223 223 223 223 223 223 223 224 224 224 226 227 229 231 230 230 230 231 236 240 246 256 265 270 272 270 267 259 255 266 270 271 273 281 291 299 305 310 320 320 314 308
204 204 204 203 201 200 200 200 200 200 201 202 203 203 203 203 204 204 204 204 204 205 205 205 204 203 204 204 205 206 209 210 212 214 215 216 217 219 219 220 221 222 223 223 223 223 223 223 223 223 223 223 223 223 223 224 227 229 231 232 232 233 233 234 238 242 247 254 262 268 271 271 271 265 257 264 267 266 270 275 280 288 298 306 318 327 331 331
204 205 206 206 204 202 202 202 202 202 203 203 204 205 205 205 205 206 206 206 206 207 207 208 207 207 207 207 208 210 211 212 213 215 216 218 218 220 222 223 225 226 226 225 224 224 223 223 223 222 222 223 222 222 223 224 227 229 231 233 233 234 235 236 239 243 248 252 259 265 269 270 271 270 263 262 263 264 270 271 272 280 289 300 312 324 334 344
204 206 207 207 206 205 205 205 204 204 205 205 206 206 206 206 207 207 207 207 207 208 209 210 210 209 210 210 211 212 213 214 215 217 218 219 220 221 224 226 227 228 228 227 225 224 223 222 222 222 222 222 222 222 223 223 226 228 230 233 234 235 237 237 240 244 248 252 258 263 268 271 271 271 265 260 261 264 267 267 270 277 282 291 303 313 324 338
205 206 207 209 209 209 208 208 207 207 207 207 207 207 207 207 208 209 209 209 209 209 210 211 211 211 212 213 214 215 215 215 217 219 220 221 222 223 226 227 229 229 228 226 225 223 222 221 221 222 222 222 223 223 223 224 226 228 230 233 234 236 237 238 241 243 247 251 256 262 267 270 270 269 264 259 261 261 261 263 267 272 276 283 292 300 311 324
207 207 207 209 210 211 211 211 210 209 209 209 209 208 208 208 209 210 210 210 211 211 212 212 213 213 214 215 215 216 216 217 218 220 222 223 224 226 227 228 229 229 228 225 224 222 221 220 221 222 222 222 223 223 224 225 226 228 231 233 234 236 237 239 241 244 247 250 255 260 264 269 270 270 265 258 259 259 257 260 265 270 274 279 287 294 304 314
208 208 208 209 210 212 213 213 212 211 211 211 211 210 209 210 210 211 212 212 212 213 213 214 214 214 215 216 217 217 217 218 220 221 223 224 226 227 228 229 229 228 227 225 223 222 220 220 220 222 222 222 223 224 225 226 227 228 230 233 234 235 237 239 241 244 247 250 254 257 262 267 269 270 268 258 256 256 255 258 265 269 273 279 286 293 301 309
209 209 209 209 210 212 213 214 214 213 213 212 212 212 211 211 212 213 213 214 214 214 215 215 216 216 217 218 218 218 218 220 221 222 224 226 227 229 229 230 229 229 227 224 222 221 220 220 221 223 223 223 224 225 226 227 227 229 231 232 234 235 237 239 242 244 248 250 253 256 260 265 267 268 268 259 255 253 252 256 263 269 274 279 285 291 297 303
210 210 210 210 210 211 213 214 215 214 214 214 213 213 213 213 214 215 215 216 216 216 216 217 217 218 219 219 219 219 219 220 221 223 224 226 228 229 230 230 230 229 226 224 222 221 221 221 223 224 225 225 226 227 228 228 229 230 231 233 234 236 238 240 242 245 247 250 253 256 259 263 265 267 264 256 255 252 250 254 259 265 272 277 282 288 293 297
213 212 211 211 212 212 212 213 215 215 215 215 215 214 214 215 215 216 217 217 218 218 218 219 219 220 220 221 221 221 221 221 222 223 224 226 228 229 230 230 230 229 226 223 222 221 221 222 224 226 226 227 228 229 229 230 231 232 233 234 235 237 239 240 243 245 248 251 254 256 259 262 264 265 260 254 252 251 251 254 258 263 269 274 280 285 290 294
214 214 213 213 213 213 214 214 215 215 216 216 216 216 216 216 216 217 218 218 219 220 220 221 221 222 222 222 222 223 223 223 223 223 225 226 229 230 230 230 229 228 226 224 222 221 222 223 225 227 228 229 230 230 231 231 233 234 235 236 237 239 240 241 244 245 247 251 254 257 258 260 262 261 257 254 249 246 248 251 256 261 267 272 278 284 289 292
217 216 215 215 214 215 215 215 215 215 216 217 217 217 217 217 218 218 219 219 220 221 221 222 223 223 224 224 224 224 225 225 225 225 225 227 229 230 231 230 229 228 226 224 222 222 222 223 226 227 229 230 230 232 232 233 234 235 237 238 238 241 242 242 245 246 248 250 253 257 257 257 260 258 254 254 248 244 247 249 254 259 266 272 278 283 288 292
219 219 218 216 216 216 216 217 216 216 216 217 218 218 219 219 219 220 220 220 221 221 222 223 223 224 225 225 225 226 226 227 227 226 226 227 228 230 231 231 229 227 226 224 223 222 222 224 226 228 229 230 231 232 234 235 236 237 238 239 239 241 243 243 244 246 247 249 251 255 256 253 255 255 253 252 248 248 250 253 257 261 267 273 278 284 288 292
220 221 220 219 218 217 217 218 218 217 217 217 218 219 220 220 220 221 221 222 222 222 223 223 224 225 226 226 226 228 228 229 229 228 228 228 229 230 230 230 229 227 226 224 224 223 223 224 226 228 229 231 232 234 236 237 237 238 238 240 240 241 244 244 245 245 246 248 249 252 251 245 248 253 251 247 249 252 255 259 263 266 270 275 279 284 288 292
221 221 221 221 220 220 219 219 219 219 219 218 219 219 220 221 222 222 222 223 223 224 224 224 224 226 227 226 228 229 229 230 230 230 230 229 229 230 231 231 230 228 226 225 225 224 224 225 226 228 230 231 233 235 236 237 237 238 239 240 241 242 244 246 245 245 246 247 247 247 244 238 244 250 249 249 251 255 260 264 268 272 274 277 281 285 288 292
222 222 221 222 221 221 221 220 220 220 220 220 220 220 221 222 222 223 224 224 225 225 226 226 227 228 228 229 230 230 231 231 231 232 232 231 231 231 231 231 230 229 227 227 226 226 226 226 227 228 230 231 232 234 235 237 238 240 241 241 242 242 243 244 245 245 246 246 245 243 239 235 241 248 250 253 254 256 262 267 272 275 277 279 282 284 287 291
223 222 221 222 222 222 222 221 221 221 221 221 221 222 222 222 223 224 225 225 226 226 227 227 228 229 229 230 231 231 231 232 232 232 233 233 233 232 232 232 232 231 229 229 228 228 228 228 228 229 230 231 233 235 237 239 241 242 242 242 242 241 242 243 244 245 245 245 242 241 239 235 239 248 253 256 257 258 262 266 272 276 279 282 283 284 287 290
223 222 221 220 222 222 222 221 221 221 221 222 223 223 223 223 224 225 225 226 226 227 227 227 228 229 230 231 232 232 232 233 233 234 234 235 235 235 234 234 234 233 231 231 230 229 229 230 230 231 231 233 235 237 239 241 242 243 243 243 241 240 242 243 244 245 245 245 242 240 240 237 239 247 255 259 260 261 264 267 271 274 279 281 283 286 289 290
222 222 220 220 220 221 222 222 221 221 222 222 223 224 224 225 225 225 226 227 227 227 228 228 228 229 230 232 233 234 234 234 235 235 236 236 237 237 237 236 236 234 233 232 231 231 231 231 231 231 232 234 236 238 241 242 243 244 243 242 241 240 241 243 244 245 245 245 243 242 243 240 240 247 252 259 263 264 267 270 272 275 277 279 282 286 289 289
221 222 221 220 220 220 221 222 222 222 222 222 223 223 225 226 226 227 227 228 228 228 228 228 229 229 231 232 233 235 235 236 236 237 237 238 238 238 238 238 237 236 235 234 233 232 232 231 232 232 232 235 238 239 241 243 244 243 242 242 241 239 241 244 246 246 245 245 245 246 247 242 240 246 251 257 263 265 268 271 275 276 277 278 282 285 287 287
220 222 222 221 221 220 220 221 222 222 222 222 222 223 224 225 226 227 228 229 229 228 228 229 229 230 230 232 233 235 236 237 237 237 238 239 240 240 240 240 240 238 237 236 236 235 233 232 233 233 234 236 239 240 242 243 244 242 241 241 241 240 241 245 247 246 246 247 246 248 251 246 239 243 250 256 262 265 269 272 276 277 277 278 281 284 285 286
220 221 222 222 222 221 220 221 222 222 222 222 222 222 223 224 226 227 228 229 229 229 229 229 229 230 231 232 234 235 236 237 237 238 239 239 240 241 242 241 241 241 240 239 239 237 235 235 236 236 237 238 240 242 243 243 243 242 240 240 241 241 242 245 247 248 248 248 248 249 254 254 244 239 246 255 260 263 267 273 277 276 277 279 282 283 283 284
222 222 222 223 222 221 220 220 221 222 223 223 222 222 222 223 224 225 227 228 229 228 229 230 230 231 232 233 234 235 236 237 238 239 239 240 241 242 242 242 242 242 242 241 241 240 238 239 239 238 239 240 242 243 243 243 243 241 240 240 241 242 243 246 247 249 249 250 249 248 254 259 254 242 242 252 257 261 267 273 274 273 275 280 283 282 280 283
221 223 224 224 223 223 221 221 221 222 223 223 223 223 223 223 223 224 225 227 228 227 229 231 231 232 232 233 234 235 236 237 239 240 240 241 242 242 243 243 242 243 242 242 242 241 240 240 241 240 239 240 241 243 243 243 243 241 240 240 242 243 244 246 248 249 250 251 251 250 252 260 261 252 245 250 255 260 266 269 270 272 276 279 281 279 279 283
220 221 224 225 225 225 223 222 222 222 222 223 224 224 224 223 224 224 225 227 228 227 228 231 232 233 233 234 234 235 236 237 238 240 240 240 241 241 242 242 242 242 242 242 242 241 240 240 241 240 239 240 241 242 243 244 243 243 242 242 243 244 245 246 247 248 250 250 252 253 252 258 264 261 251 250 254 257 262 265 268 273 277 278 278 278 280 283
220 221 223 224 225 226 225 224 223 223 223 223 224 225 225 225 224 224 226 227 228 229 228 230 231 233 233 234 235 236 237 237 237 238 239 239 240 240 241 241 241 241 241 242 243 243 242 241 241 241 241 241 241 243 244 245 245 245 245 245 245 245 245 246 246 247 249 251 253 255 254 258 265 265 257 252 253 256 261 265 268 272 275 276 278 278 280 283
220 222 223 224 225 225 226 225 224 223 224 224 225 225 226 226 225 226 228 229 230 232 230 229 230 232 233 234 235 236 237 238 238 238 239 239 240 240 240 241 241 241 242 242 243 244 243 242 242 242 242 242 243 244 245 246 246 247 247 247 247 247 246 246 247 247 249 252 254 256 256 257 262 265 265 259 255 256 260 265 268 271 273 275 277 278 280 282
221 221 222 223 224 224 225 226 226 224 224 225 226 226 226 227 226 227 230 229 230 232 230 229 230 231 233 234 234 234 235 237 237 237 238 239 240 241 241 242 242 243 243 243 244 244 244 243 242 242 243 243 243 244 244 245 246 246 247 247 248 249 249 249 248 249 249 251 253 256 257 256 258 264 267 267 265 263 263 265 268 270 272 274 276 278 279 280
219 220 220 221 223 224 225 227 227 226 226 226 227 227 227 227 228 231 232 230 230 232 231 229 230 230 232 233 233 234 234 235 236 236 237 237 239 239 240 241 241 242 243 243 243 243 243 243 242 242 242 243 243 244 244 245 246 247 248 249 250 250 251 251 250 250 250 250 252 255 256 257 259 261 264 267 271 271 268 267 268 269 271 273 275 276 277 279
219 218 219 219 221 223 224 227 228 227 227 227 228 229 229 229 230 232 232 231 232 234 234 232 231 230 230 231 232 232 233 234 234 235 236 236 237 238 238 240 241 241 242 243 243 243 243 244 243 243 243 242 244 245 245 246 246 247 247 248 249 249 251 252 251 251 251 250 251 252 255 259 262 263 264 267 270 271 270 269 269 270 272 273 274 274 275 278
224 222 221 219 220 222 222 223 226 228 228 228 229 230 231 233 233 230 231 232 232 234 236 235 234 233 233 233 233 233 234 235 235 236 236 236 237 238 239 240 241 241 242 244 245 245 245 246 245 245 244 243 244 244 245 245 245 246 246 247 249 250 252 253 252 253 254 253 252 251 254 258 262 264 265 267 268 270 270 271 271 272 272 272 272 273 274 276
229 228 227 225 223 224 224 222 222 225 227 228 230 230 229 231 232 230 231 233 232 232 234 236 235 235 234 234 233 234 235 236 236 237 237 238 238 238 239 240 241 242 243 245 247 247 247 247 246 245 245 244 244 245 245 245 246 246 247 248 250 251 252 254 255 254 255 256 253 251 253 257 260 263 265 266 268 270 272 273 273 272 272 271 272 273 273 274
231 231 231 231 229 229 230 228 226 226 226 226 230 232 230 228 228 229 230 232 232 230 232 236 237 235 235 235 234 234 235 235 236 237 238 238 238 238 238 240 241 242 244 245 247 247 247 247 246 245 245 244 244 245 245 244 245 246 247 248 249 250 250 252 254 253 254 255 254 252 254 256 258 261 265 266 267 268 271 272 272 272 271 271 272 273 273 274
233 232 232 232 232 232 232 233 232 232 232 230 228 229 229 226 225 227 229 230 231 230 230 234 236 235 235 235 234 235 236 236 236 237 238 238 238 237 237 239 240 241 243 244 246 246 246 247 247 245 245 245 244 244 245 245 246 247 248 248 248 248 250 250 252 253 254 256 257 255 256 256 255 259 264 266 266 267 267 268 269 270 271 271 271 272 273 275
233 233 234 233 232 233 233 234 235 235 235 235 231 228 226 224 223 225 227 229 230 230 229 232 235 234 233 233 234 233 235 236 235 236 237 238 238 236 236 238 239 238 239 240 242 244 244 245 246 244 244 244 244 244 246 247 248 248 249 249 249 250 251 252 253 254 255 257 258 257 255 255 255 258 261 263 265 266 267 267 267 268 270 272 272 273 274 276
233 233 234 234 233 233 234 234 235 235 236 236 235 232 229 226 223 224 226 227 228 230 230 231 234 235 233 233 233 233 233 235 235 234 235 236 236 236 235 236 237 236 237 239 241 242 242 242 243 244 243 243 244 245 246 247 248 248 249 249 250 251 252 254 254 254 255 256 257 257 255 255 256 258 259 261 263 264 266 267 268 268 270 272 274 275 276 277
233 232 233 235 235 234 234 234 234 235 236 235 236 236 233 230 227 225 226 226 227 230 231 233 235 237 237 236 235 234 234 236 236 235 235 235 234 235 235 235 236 236 236 237 239 240 241 242 243 244 244 244 245 245 246 247 247 247 248 248 250 251 251 252 253 253 253 253 254 256 255 255 256 258 259 261 262 262 263 265 268 270 271 272 274 276 277 278
231 232 232 234 235 235 235 235 235 235 235 234 235 237 237 235 232 230 229 228 229 230 230 231 234 238 240 239 238 238 237 238 238 236 236 235 234 234 235 235 235 236 236 237 238 239 241 242 243 244 245 245 246 245 245 246 246 246 246 247 249 249 250 250 251 252 252 252 252 253 254 256 257 259 261 262 262 262 263 264 266 269 270 272 273 274 276 277
229 231 231 232 234 235 235 235 235 235 235 235 235 236 237 237 236 235 234 232 231 231 231 231 232 235 237 238 239 240 239 240 241 240 238 237 235 235 235 236 237 238 238 239 239 239 240 242 243 244 245 245 245 244 244 244 245 246 246 247 248 248 249 249 249 250 251 251 253 252 253 257 259 260 261 263 263 263 263 263 264 266 268 269 270 271 272 273
228 229 230 230 231 234 235 236 237 237 236 236 236 236 236 237 237 237 238 237 235 233 233 233 232 233 233 232 233 234 235 236 238 240 241 240 238 238 238 237 238 239 239 239 240 240 240 242 243 245 245 245 245 245 245 246 247 248 248 248 248 249 250 250 250 251 252 253 255 255 256 260 261 258 259 261 262 263 262 262 262 262 264 265 266 268 269 270
228 229 230 230 231 232 234 236 237 237 237 237 238 237 236 236 237 238 239 240 240 237 235 234 233 234 235 234 234 233 231 230 229 230 234 237 239 240 240 239 238 239 239 238 239 239 238 239 240 242 245 246 246 247 248 249 250 251 251 250 251 252 253 254 255 254 254 255 257 258 260 262 261 257 256 256 257 259 260 260 260 260 261 262 263 264 266 267
229 229 230 231 231 232 233 234 235 236 236 237 238 238 237 237 237 238 238 240 241 240 239 237 235 236 237 239 240 239 237 234 232 229 226 227 231 232 233 234 234 235 237 238 239 239 238 238 238 240 244 247 249 250 251 251 251 252 252 252 252 252 252 254 253 254 255 256 255 256 260 262 262 260 258 256 258 260 261 261 262 262 262 263 263 264 265 267
229 230 230 232 233 233 232 232 233 235 236 238 238 238 239 238 238 238 238 239 241 242 242 240 239 239 240 242 243 244 244 242 242 239 231 226 229 227 225 226 229 231 234 238 241 242 243 244 243 244 245 246 248 249 251 253 252 253 253 252 253 253 253 253 253 255 257 257 257 258 261 264 265 263 261 261 262 264 265 265 265 264 264 263 264 265 266 268
230 231 232 233 234 234 233 233 233 235 236 238 238 238 238 239 239 239 239 240 241 242 242 242 241 241 242 243 245 246 246 246 246 245 241 237 238 238 236 235 236 237 237 240 243 245 248 250 250 252 252 250 248 248 250 255 255 255 255 254 254 255 255 256 258 259 260 261 263 264 264 264 265 265 263 263 263 264 265 265 265 264 264 264 265 266 266 266
232 232 233 235 235 235 234 233 233 233 234 235 236 236 237 238 240 240 241 241 241 241 243 243 243 244 244 244 245 245 246 247 247 247 246 245 245 246 245 244 243 243 244 245 246 247 251 253 254 257 258 256 255 253 253 256 257 256 256 255 254 254 256 258 261 262 263 264 266 267 266 265 267 268 267 266 265 266 266 265 265 266 266 266 266 266 266 265
234 234 235 237 237 236 234 234 234 233 234 234 234 234 236 236 238 240 241 241 241 242 243 244 244 245 245 245 245 245 246 247 248 248 248 248 248 248 248 248 247 247 247 247 247 248 250 251 252 254 255 255 254 254 254 253 254 253 253 254 254 254 256 258 260 263 264 265 267 268 268 268 268 271 272 269 266 265 265 264 264 265 266 265 265 264 264 264
235 236 237 238 238 237 236 235 236 236 235 235 234 234 236 237 237 239 241 242 242 242 243 244 244 245 246 245 246 246 245 246 247 247 248 250 250 249 249 248 248 249 249 248 248 248 248 249 248 249 249 248 247 248 247 245 246 247 247 251 255 258 259 261 264 265 264 266 268 267 267 269 269 269 269 267 265 264 263 264 264 264 265 265 265 264 264 264
236 237 238 239 239 238 237 237 237 237 236 235 235 235 237 237 238 239 240 241 241 242 243 243 243 244 245 246 246 246 246 246 247 246 247 248 249 250 250 249 248 249 250 250 250 251 251 251 250 249 249 248 246 246 244 243 245 245 245 251 259 262 262 264 264 264 264 266 266 266 267 270 269 266 265 267 269 268 266 266 267 266 265 265 265 265 265 266
Height
5765 5767 5770 5773 5776 5779 5781 5784 5786 5789 5791 5794 5796 5798 5801 5803 5805 5807 5809 5811 5813 5815 5817 5819 5821 5823 5826 5828 5830 5832 5834 5836 5838 5840 5842 5844 5846 5848 5850 5852 5853 5855 5857 5858 5860 5862 5864 5865 5867 5868 5869 5870 5870 5871 5871 5872 5873 5874 5875 5875 5876 5876 5876 5877 5877 5877 5877 5877 5877 5877 5876 5876 5877 5877 5876 5876 5876 5876 5877 5876 5876 5876 5876 5877 5876 5876 5876 5876
5763 5766 5768 5771 5774 5777 5780 5782 5785 5787 5790 5792 5795 5797 5800 5802 5804 5806 5808 5810 5812 5814 5816 5818 5820 5822 5824 5826 5828 5830 5833 5835 5837 5839 5841 5843 5845 5847 5849 5850 5852 5854 5856 5857 5859 5860 5862 5864 5865 5867 5868 5869 5869 5870 5871 5871 5872 5873 5874 5875 5875 5876 5876 5876 5876 5877 5877 5877 5876 5876 5876 5876 5876 5876 5876 5876 5876 5876 5876 5876 5876 5876 5876 5876 5876 5876 5876 5876
5761 5764 5767 5769 5772 5775 5777 5780 5783 5786 5789 5791 5793 5796 5799 5801 5803 5805 5807 5809 5811 5813 5815 5817 5819 5820 5823 5825 5827 5829 5831 5834 5836 5838 5840 5842 5844 5845 5847 5849 5851 5852 5854 5856 5857 5859 5861 5862 5864 5865 5866 5867 5868 5869 5870 5870 5871 5872 5873 5874 5875 5875 5876 5876 5876 5876 5876 5876 5876 5876 5876 5876 5876 5876 5876 5876 5876 5876 5876 5876 5876 5876 5876 5876 5876 5876 5876 5876
5759 5762 5765 5768 5770 5773 5775 5778 5781 5784 5787 5790 5792 5795 5797 5800 5802 5804 5806 5808 5810 5812 5814 5815 5817 5819 5821 5824 5826 5828 5830 5832 5835 5836 5838 5840 5842 5844 5845 5847 5849 5851 5853 5854 5856 5857 5859 5861 5862 5864 5865 5866 5867 5868 5869 5869 5870 5871 5872 5873 5874 5875 5875 5875 5875 5875 5875 5876 5875 5876 5876 5876 5876 5876 5876 5876 5876 5876 5876 5876 5876 5876 5876 5876 5876 5876 5876 5875
5756 5760 5763 5766 5769 5771 5774 5777 5780 5783 5785 5788 5791 5793 5796 5798 5801 5803 5805 5807 5809 5810 5812 5814 5816 5818 5820 5822 5824 5827 5829 5831 5833 5835 5837 5839 5840 5842 5844 5846 5848 5849 5851 5853 5854 5856 5857 5859 5860 5862 5863 5864 5865 5866 5867 5868 5869 5870 5871 5872 5873 5873 5874 5874 5874 5875 5875 5875 5875 5875 5875 5876 5876 5876 5876 5875 5875 5875 5875 5875 5875 5875 5875 5875 5875 5875 5875 5875
5754 5757 5761 5764 5767 5770 5773 5775 5778 5781 5784 5786 5789 5792 5794 5797 5799 5801 5803 5805 5807 5809 5811 5812 5814 5816 5818 5820 5823 5825 5827 5829 5831 5833 5835 5837 5839 5841 5843 5844 5846 5848 5849 5851 5852 5854 5855 5857 5858 5860 5861 5862 5864 5865 5866 5867 5868 5869 5870 5871 5872 5872 5873 5873 5874 5874 5874 5874 5874 5874 5875 5875 5875 5875 5875 5875 5875 5875 5875 5875 5875 5875 5875 5875 5875 5875 5875 5874
5751 5755 5759 5762 5765 5768 5771 5774 5776 5779 5781 5784 5787 5790 5793 5795 5798 5800 5802 5804 5806 5807 5809 5811 5813 5815 5817 5819 5821 5823 5826 5828 5830 5832 5834 5836 5837 5839 5841 5843 5844 5846 5847 5849 5850 5852 5853 5855 5856 5858 5859 5861 5862 5864 5865 5866 5866 5868 5869 5869 5870 5871 5872 5872 5873 5873 5873 5873 5873 5873 5874 5874 5875 5875 5875 5875 5874 5874 5874 5874 5874 5874 5874 5874 5874 5874 5874 5874
5749 5753 5756 5760 5763 5766 5769 5771 5774 5777 5779 5782 5785 5788 5790 5793 5796 5798 5800 5802 5804 5806 5807 5809 5811 5813 5815 5817 5819 5822 5824 5826 5828 5830 5832 5834 5836 5837 5839 5841 5842 5844 5846 5847 5849 5850 5851 5853 5854 5856 5857 5859 5860 5862 5863 5864 5865 5866 5867 5868 5869 5870 5870 5871 5872 5872 5872 5872 5872 5872 5873 5873 5874 5874 5874 5874 5874 5874 5874 5874 5874 5874 5874 5874 5874 5874 5874 5874
5747 5750 5754 5757 5760 5763 5766 5769 5772 5774 5777 5780 5783 5785 5788 5791 5793 5795 5798 5800 5802 5804 5806 5808 5810 5812 5814 5816 5818 5820 5822 5824 5826 5828 5830 5832 5834 5836 5837 5839 5840 5842 5844 5845 5846 5848 5849 5851 5852 5854 5855 5857 5858 5860 5861 5862 5863 5865 5866 5867 5867 5868 5869 5870 5870 5871 5871 5871 5871 5871 5872 5872 5873 5873 5873 5873 5873 5873 5873 5873 5873 5873 5873 5873 5873 5873 5873 5873
5743 5747 5750 5754 5757 5761 5764 5766 5769 5772 5775 5777 5780 5783 5786 5788 5791 5793 5795 5798 5800 5802 5804 5806 5808 5810 5812 5814 5816 5818 5820 5823 5824 5826 5828 5830 5832 5834 5835 5837 5839 5840 5842 5843 5844 5846 5847 5849 5850 5852 5854 5855 5856 5858 5859 5860 5862 5863 5864 5865 5866 5867 5867 5868 5869 5869 5870 5870 5870 5870 5870 5871 5871 5872 5873 5872 5872 5872 5873 5873 5873 5873 5873 5873 5873 5872 5872 5872
5740 5743 5747 5750 5754 5757 5761 5764 5766 5769 5772 5775 5778 5780 5783 5786 5788 5791 5793 5796 5798 5800 5802 5804 5806 5808 5810 5812 5814 5816 5819 5821 5822 5824 5826 5828 5830 5832 5834 5835 5837 5838 5840 5841 5842 5844 5845 5847 5849 5850 5851 5853 5854 5856 5857 5859 5860 5861 5862 5863 5864 5865 5866 5867 5867 5868 5868 5869 5869 5869 5869 5870 5870 5871 5871 5871 5871 5871 5872 5872 5872 5872 5872 5872 5872 5872 5871 5871
5736 5739 5743 5746 5750 5754 5757 5760 5764 5766 5769 5772 5775 5778 5781 5783 5786 5789 5791 5793 5796 5798 5800 5802 5804 5806 5808 5810 5812 5814 5817 5819 5821 5823 5824 5826 5828 5830 5832 5833 5835 5836 5837 5839 5840 5842 5843 5845 5847 5848 5850 5851 5852 5854 5855 5857 5858 5859 5861 5861 5862 5863 5864 5865 5866 5866 5867 5867 5867 5868 5869 5868 5869 5870 5870 5870 5870 5870 5870 5871 5871 5871 5871 5871 5871 5871 5871 5870
5732 5736 5739 5743 5746 5750 5753 5757 5760 5763 5766 5769 5772 5775 5778 5781 5784 5786 5789 5791 5794 5796 5798 5800 5802 5804 5806 5808 5810 5813 5815 5816 5819 5821 5822 5824 5826 5828 5829 5831 5833 5834 5835 5837 5838 5840 5841 5843 5845 5846 5848 5849 5850 5852 5854 5855 5856 5857 5858 5859 5860 5861 5862 5863 5864 5864 5865 5865 5866 5866 5867 5867 5867 5868 5869 5869 5869 5869 5869 5870 5870 5870 5870 5870 5870 5870 5870 5869
5729 5732 5735 5739 5742 5746 5750 5753 5756 5760 5763 5766 5769 5772 5775 5778 5781 5784 5786 5789 5791 5793 5796 5798 5800 5802 5803 5806 5808 5810 5812 5815 5817 5818 5820 5822 5824 5826 5827 5829 5830 5832 5833 5835 5836 5838 5839 5841 5843 5844 5846 5847 5849 5850 5852 5853 5854 5855 5856 5857 5858 5859 5860 5861 5862 5863 5863 5864 5864 5865 5866 5866 5865 5867 5867 5867 5868 5868 5868 5868 5869 5869 5869 5869 5869 5869 5869 5868
5725 5729 5732 5735 5739 5742 5746 5749 5753 5756 5759 5762 5766 5769 5772 5775 5778 5781 5783 5786 5788 5790 5793 5795 5797 5799 5801 5804 5806 5808 5810 5812 5814 5816 5818 5820 5822 5823 5825 5826 5828 5829 5831 5832 5834 5836 5837 5839 5841 5842 5844 5845 5847 5848 5849 5851 5852 5853 5854 5855 5857 5857 5858 5859 5860 5861 5861 5862 5862 5863 5865 5864 5864 5865 5866 5866 5866 5866 5867 5867 5867 5867 5867 5868 5868 5868 5868 5867
5722 5725 5728 5731 5735 5738 5742 5745 5748 5752 5756 5759 5762 5765 5769 5772 5774 5777 5780 5782 5785 5787 5790 5792 5795 5797 5799 5801 5804 5806 5808 5810 5812 5814 5816 5817 5819 5821 5822 5824 5825 5827 5829 5830 5832 5833 5835 5837 5838 5840 5842 5843 5845 5846 5847 5848 5849 5851 5852 5853 5855 5855 5856 5857 5858 5858 5859 5860 5861 5861 5863 5863 5862 5864 5864 5864 5865 5865 5865 5866 5866 5866 5866 5867 5867 5867 5866 5866
5719 5722 5725 5728 5731 5734 5738 5741 5745 5748 5752 5755 5759 5762 5765 5768 5771 5774 5776 5779 5781 5784 5787 5789 5792 5794 5796 5799 5802 5804 5806 5807 5809 5811 5813 5815 5817 5818 5820 5821 5823 5825 5826 5828 5829 5831 5833 5834 5836 5838 5839 5841 5842 5843 5845 5846 5847 5849 5850 5851 5853 5853 5854 5855 5855 5856 5857 5858 5859 5859 5861 5862 5860 5862 5863 5863 5863 5864 5864 5864 5865 5865 5865 5865 5865 5865 5865 5865
5715 5719 5722 5725 5727 5731 5734 5737 5741 5744 5748 5751 5754 5758 5761 5764 5767 5770 5773 5775 5778 5781 5783 5786 5789 5791 5793 5797 5799 5801 5803 5805 5807 5809 5810 5812 5814 5816 5817 5819 5820 5822 5824 5825 5827 5828 5830 5832 5833 5835 5837 5838 5840 5842 5843 5843 5845 5846 5847 5849 5850 5851 5851 5852 5853 5854 5855 5856 5857 5858 5859 5860 5859 5860 5861 5861 5862 5862 5863 5863 5863 5864 5864 5864 5864 5864 5864 5863
5712 5715 5718 5721 5724 5727 5730 5734 5737 5741 5744 5747 5750 5753 5757 5760 5763 5766 5769 5772 5775 5777 5779 5783 5786 5788 5790 5794 5796 5798 5800 5802 5804 5806 5808 5810 5812 5813 5815 5816 5818 5819 5821 5822 5824 5826 5827 5829 5831 5832 5835 5836 5838 5839 5839 5840 5842 5844 5846 5847 5848 5849 5849 5849 5850 5851 5853 5854 5855 5856 5858 5858 5858 5858 5859 5860 5860 5861 5861 5861 5861 5862 5862 5862 5863 5863 5862 5862
5708 5711 5714 5717 5721 5723 5727 5730 5733 5737 5740 5743 5746 5749 5752 5756 5759 5762 5765 5768 5771 5774 5777 5780 5783 5785 5788 5791 5793 5795 5797 5799 5801 5803 5805 5807 5809 5810 5812 5813 5815 5816 5818 5819 5821 5823 5825 5826 5828 5830 5832 5834 5835 5835 5835 5838 5840 5842 5844 5845 5846 5846 5846 5846 5847 5849 5850 5851 5853 5854 5855 5856 5857 5857 5858 5858 5859 5860 5860 5859 5860 5860 5860 5861 5861 5861 5861 5861
5704 5707 5711 5714 5717 5720 5723 5726 5729 5732 5735 5739 5742 5745 5748 5751 5754 5757 5762 5765 5767 5770 5773 5776 5779 5781 5785 5787 5789 5792 5794 5796 5798 5800 5802 5804 5806 5807 5809 5811 5812 5813 5815 5817 5819 5821 5822 5823 5825 5827 5829 5831 5831 5831 5834 5837 5838 5840 5841 5842 5843 5843 5843 5844 5845 5846 5848 5849 5851 5852 5853 5855 5855 5855 5856 5856 5857 5858 5858 5858 5858 5858 5858 5859 5859 5859 5859 5859
5701 5704 5707 5710 5713 5716 5719 5722 5725 5728 5731 5734 5738 5741 5744 5747 5750 5754 5757 5759 5762 5766 5768 5772 5775 5777 5781 5783 5785 5788 5790 5792 5795 5797 5799 5801 5803 5804 5806 5808 5809 5811 5813 5814 5816 5817 5819 5820 5822 5825 5827 5828 5828 5829 5832 5834 5836 5837 5838 5839 5840 5841 5841 5841 5842 5843 5845 5846 5848 5849 5850 5852 5853 5853 5854 5854 5855 5857 5856 5856 5857 5856 5856 5856 5856 5857 5857 5856
5697 5700 5703 5706 5709 5712 5715 5718 5721 5724 5727 5730 5733 5736 5739 5743 5746 5749 5752 5754 5757 5760 5764 5767 5770 5773 5777 5779 5782 5785 5786 5789 5791 5793 5796 5798 5799 5801 5804 5805 5806 5808 5810 5811 5812 5814 5815 5817 5820 5822 5823 5824 5825 5827 5829 5831 5833 5834 5835 5836 5837 5838 5838 5837 5839 5841 5842 5843 5845 5846 5847 5850 5851 5851 5852 5852 5853 5854 5854 5854 5855 5855 5855 5854 5854 5854 5854 5854
5694 5697 5699 5703 5706 5708 5711 5714 5717 5720 5723 5726 5729 5731 5735 5738 5741 5744 5747 5749 5752 5755 5759 5762 5766 5769 5772 5775 5778 5780 5783 5785 5788 5790 5793 5794 5796 5798 5800 5801 5803 5805 5806 5807 5809 5810 5812 5814 5817 5819 5819 5820 5822 5824 5826 5828 5830 5831 5832 5833 5833 5835 5835 5834 5836 5839 5839 5840 5842 5843 5843 5846 5849 5849 5850 5851 5850 5852 5852 5852 5853 5852 5852 5852 5852 5852 5852 5851
5691 5693 5696 5700 5702 5705 5708 5710 5713 5716 5719 5722 5724 5727 5731 5733 5736 5739 5741 5743 5746 5750 5754 5757 5761 5765 5768 5771 5774 5777 5779 5781 5784 5787 5789 5791 5793 5794 5796 5798 5800 5801 5802 5804 5805 5806 5808 5811 5814 5815 5816 5817 5819 5821 5823 5825 5826 5827 5828 5829 5830 5831 5832 5832 5833 5835 5836 5837 5839 5841 5839 5841 5846 5847 5848 5849 5848 5849 5849 5849 5850 5850 5849 5850 5850 5850 5849 5849
5687 5690 5693 5696 5698 5701 5704 5707 5709 5712 5715 5717 5720 5723 5726 5729 5732 5734 5736 5738 5740 5744 5749 5753 5757 5760 5764 5768 5771 5773 5774 5777 5780 5783 5784 5787 5789 5791 5793 5794 5796 5797 5799 5800 5801 5803 5806 5809 5810 5812 5813 5815 5816 5818 5820 5822 5822 5823 5825 5826 5827 5828 5829 5829 5830 5832 5833 5834 5836 5838 5835 5836 5842 5845 5846 5846 5846 5846 5847 5847 5848 5847 5846 5847 5848 5848 5847 5846
5683 5686 5689 5692 5694 5697 5700 5703 5705 5708 5711 5713 5716 5719 5721 5724 5726 5729 5732 5731 5733 5740 5745 5748 5752 5757 5761 5764 5767 5768 5769 5773 5777 5778 5780 5783 5784 5787 5788 5790 5792 5793 5795 5796 5797 5800 5803 5805 5807 5809 5810 5812 5813 5815 5816 5818 5818 5819 5821 5823 5823 5824 5826 5827 5828 5829 5829 5830 5832 5834 5832 5831 5835 5842 5845 5844 5843 5844 5845 5846 5844 5843 5843 5844 5845 5845 5844 5844
5678 5681 5685 5687 5690 5693 5696 5699 5701 5704 5707 5709 5713 5715 5717 5720 5721 5724 5726 5723 5726 5736 5741 5744 5749 5753 5757 5759 5761 5762 5766 5771 5772 5773 5777 5778 5779 5782 5783 5785 5788 5789 5790 5792 5793 5796 5799 5801 5802 5804 5806 5807 5809 5810 5812 5813 5813 5815 5818 5818 5819 5821 5823 5824 5825 5825 5825 5826 5827 5829 5831 5828 5827 5837 5843 5841 5841 5842 5843 5843 5841 5840 5841 5842 5842 5842 5841 5841
5673 5676 5680 5682 5686 5689 5692 5694 5697 5700 5703 5706 5708 5710 5713 5714 5716 5719 5718 5715 5723 5734 5738 5742 5746 5749 5752 5754 5756 5758 5762 5766 5766 5768 5771 5772 5774 5777 5778 5781 5783 5784 5786 5787 5789 5792 5795 5797 5797 5799 5801 5803 5805 5806 5807 5808 5810 5812 5814 5815 5816 5817 5819 5820 5820 5821 5821 5821 5823 5825 5828 5826 5822 5829 5838 5838 5838 5840 5841 5840 5838 5838 5838 5839 5839 5839 5838 5839
5668 5672 5674 5678 5682 5685 5687 5690 5692 5695 5699 5701 5703 5706 5708 5709 5712 5712 5708 5712 5724 5732 5735 5738 5741 5744 5747 5749 5751 5754 5757 5760 5761 5763 5764 5766 5769 5771 5772 5775 5777 5779 5781 5783 5785 5788 5790 5792 5793 5795 5797 5799 5801 5802 5802 5804 5806 5809 5810 5811 5812 5813 5814 5815 5815 5817 5817 5817 5820 5820 5824 5827 5819 5819 5830 5835 5836 5838 5838 5837 5836 5835 5835 5836 5836 5836 5835 5835
5664 5666 5670 5674 5677 5680 5683 5685 5687 5691 5694 5697 5698 5701 5702 5704 5706 5703 5703 5716 5727 5727 5730 5733 5736 5739 5742 5744 5746 5749 5751 5754 5756 5757 5759 5761 5763 5765 5768 5770 5772 5774 5776 5778 5781 5783 5785 5786 5788 5791 5793 5795 5797 5797 5799 5801 5803 5805 5806 5806 5808 5808 5809 5810 5811 5813 5813 5814 5816 5815 5820 5824 5816 5813 5822 5829 5833 5836 5836 5835 5834 5833 5832 5833 5833 5832 5832 5832
5658 5661 5665 5669 5671 5675 5678 5679 5683 5687 5689 5692 5693 5695 5697 5698 5697 5697 5707 5720 5721 5718 5722 5728 5732 5735 5737 5738 5740 5743 5746 5747 5749 5751 5754 5756 5757 5760 5764 5765 5768 5770 5771 5775 5777 5779 5780 5781 5784 5787 5788 5791 5792 5792 5794 5796 5797 5799 5800 5801 5802 5803 5804 5806 5808 5808 5809 5811 5811 5811 5815 5817 5814 5813 5817 5820 5826 5832 5833 5832 5831 5830 5829 5829 5830 5829 5828 5828
5653 5656 5659 5663 5666 5670 5673 5675 5678 5682 5684 5687 5687 5689 5690 5688 5690 5699 5711 5715 5711 5710 5717 5723 5727 5730 5730 5731 5733 5737 5740 5740 5743 5745 5748 5750 5752 5755 5758 5760 5763 5765 5767 5770 5771 5773 5774 5776 5779 5781 5783 5786 5786 5788 5790 5791 5793 5794 5795 5796 5797 5799 5800 5802 5804 5803 5804 5806 5807 5807 5809 5810 5811 5812 5813 5816 5821 5825 5828 5828 5827 5827 5826 5826 5826 5825 5824 5824
5647 5650 5654 5658 5661 5665 5668 5671 5673 5676 5679 5681 5682 5682 5681 5680 5690 5702 5706 5705 5705 5708 5714 5719 5722 5723 5723 5724 5727 5732 5733 5734 5738 5740 5742 5744 5746 5749 5753 5755 5758 5761 5762 5763 5764 5768 5769 5770 5774 5776 5778 5781 5782 5783 5785 5786 5787 5788 5790 5790 5791 5794 5796 5797 5798 5797 5798 5802 5802 5803 5803 5804 5807 5808 5810 5814 5817 5819 5821 5823 5823 5823 5823 5822 5822 5821 5821 5821
5640 5644 5648 5652 5655 5658 5662 5665 5667 5670 5673 5676 5676 5674 5673 5679 5691 5698 5697 5697 5702 5707 5711 5713 5715 5716 5718 5720 5724 5726 5728 5730 5733 5735 5736 5738 5741 5745 5748 5750 5754 5756 5757 5758 5760 5764 5764 5766 5770 5771 5773 5776 5777 5778 5778 5780 5781 5782 5784 5784 5786 5792 5792 5790 5790 5792 5794 5795 5796 5799 5799 5801 5804 5804 5806 5811 5813 5814 5815 5817 5818 5818 5818 5817 5816 5816 5816 5816
5634 5637 5641 5645 5649 5652 5655 5657 5661 5664 5666 5669 5667 5664 5669 5680 5688 5690 5690 5693 5699 5703 5705 5704 5707 5710 5712 5716 5719 5722 5723 5726 5729 5729 5731 5734 5737 5740 5744 5747 5750 5752 5753 5755 5756 5758 5759 5760 5763 5766 5767 5770 5771 5772 5773 5774 5775 5777 5779 5780 5783 5788 5786 5783 5784 5788 5789 5786 5789 5795 5795 5798 5802 5799 5802 5808 5809 5810 5811 5811 5812 5812 5812 5811 5811 5811 5811 5811
5628 5631 5635 5638 5642 5645 5648 5650 5653 5655 5658 5660 5658 5659 5668 5677 5681 5684 5687 5690 5694 5697 5698 5698 5700 5704 5707 5711 5714 5716 5719 5721 5723 5724 5726 5729 5731 5735 5740 5743 5746 5747 5750 5752 5750 5751 5753 5753 5756 5759 5760 5763 5766 5765 5766 5768 5769 5771 5773 5776 5780 5780 5778 5778 5778 5780 5781 5778 5782 5790 5791 5795 5799 5795 5798 5804 5805 5807 5807 5806 5805 5805 5805 5805 5805 5805 5805 5806
5622 5625 5628 5632 5635 5638 5641 5643 5645 5648 5650 5650 5652 5657 5664 5671 5676 5680 5683 5685 5687 5690 5692 5691 5692 5697 5701 5705 5708 5711 5713 5715 5717 5720 5722 5724 5726 5732 5737 5739 5741 5743 5745 5746 5743 5743 5747 5747 5748 5752 5753 5756 5758 5758 5759 5762 5765 5766 5768 5771 5772 5771 5771 5772 5771 5772 5775 5773 5775 5784 5786 5788 5793 5793 5796 5800 5801 5803 5803 5801 5800 5799 5798 5799 5799 5799 5799 5799
5616 5619 5622 5625 5628 5631 5634 5635 5638 5640 5640 5642 5648 5655 5661 5666 5671 5674 5676 5679 5681 5683 5685 5685 5686 5691 5696 5698 5701 5704 5706 5708 5712 5715 5716 5718 5722 5729 5733 5733 5735 5738 5739 5738 5736 5737 5741 5741 5741 5744 5746 5748 5749 5751 5754 5758 5760 5760 5762 5764 5765 5765 5766 5766 5765 5767 5770 5767 5768 5775 5777 5779 5787 5792 5794 5794 5796 5797 5797 5796 5796 5794 5793 5792 5792 5794 5794 5793
5609 5612 5615 5618 5621 5624 5626 5628 5631 5632 5634 5640 5647 5652 5657 5661 5664 5666 5669 5672 5674 5676 5679 5681 5682 5686 5689 5692 5694 5697 5700 5702 5704 5708 5709 5712 5718 5724 5727 5727 5728 5731 5732 5730 5730 5731 5733 5733 5734 5736 5739 5740 5742 5747 5751 5753 5753 5753 5755 5757 5759 5761 5761 5759 5759 5762 5763 5761 5761 5764 5765 5772 5784 5789 5789 5790 5791 5792 5792 5790 5789 5789 5788 5788 5786 5787 5788 5787
5602 5605 5608 5611 5614 5617 5619 5620 5624 5627 5631 5637 5641 5645 5650 5654 5658 5661 5664 5666 5668 5671 5674 5677 5678 5680 5683 5686 5688 5692 5694 5695 5698 5701 5703 5708 5715 5718 5719 5720 5721 5723 5724 5723 5723 5725 5726 5728 5729 5729 5731 5735 5738 5743 5745 5744 5746 5747 5748 5751 5754 5756 5755 5752 5751 5753 5755 5753 5754 5755 5753 5765 5782 5784 5783 5786 5785 5786 5787 5785 5784 5783 5783 5784 5782 5781 5781 5781
5595 5598 5602 5604 5606 5609 5611 5613 5618 5622 5626 5632 5637 5640 5643 5647 5651 5655 5658 5659 5661 5665 5668 5671 5673 5675 5677 5680 5683 5686 5688 5689 5692 5695 5698 5704 5710 5711 5711 5714 5716 5717 5717 5716 5717 5720 5721 5721 5721 5722 5726 5730 5732 5736 5738 5737 5739 5740 5741 5745 5748 5748 5747 5744 5742 5745 5747 5744 5747 5747 5742 5756 5779 5782 5779 5781 5779 5779 5782 5780 5780 5779 5778 5779 5778 5777 5776 5774
5590 5593 5596 5597 5599 5601 5602 5606 5611 5615 5621 5629 5632 5633 5635 5639 5644 5647 5650 5653 5655 5658 5662 5665 5668 5670 5673 5676 5678 5679 5682 5684 5686 5689 5694 5699 5702 5704 5706 5709 5710 5710 5711 5710 5712 5715 5714 5713 5715 5717 5719 5721 5724 5728 5729 5730 5730 5731 5734 5739 5740 5739 5739 5737 5735 5737 5738 5736 5741 5739 5731 5747 5776 5780 5774 5775 5773 5772 5775 5775 5775 5774 5773 5773 5772 5771 5771 5768
5584 5587 5589 5590 5593 5593 5594 5600 5606 5611 5619 5623 5623 5625 5630 5634 5637 5639 5642 5646 5650 5653 5656 5659 5662 5664 5668 5670 5670 5673 5676 5678 5682 5685 5688 5692 5695 5699 5701 5702 5703 5703 5704 5705 5706 5708 5707 5707 5709 5711 5711 5713 5716 5720 5721 5723 5724 5725 5729 5732 5732 5733 5733 5730 5731 5731 5729 5731 5736 5731 5724 5741 5769 5775 5770 5770 5766 5764 5767 5767 5768 5768 5767 5767 5766 5765 5765 5762
5579 5581 5582 5584 5586 5587 5590 5597 5602 5606 5612 5613 5613 5620 5625 5627 5630 5634 5638 5640 5642 5646 5649 5653 5656 5658 5660 5661 5662 5666 5668 5672 5677 5680 5682 5686 5690 5693 5695 5696 5696 5697 5699 5700 5701 5701 5700 5700 5702 5703 5703 5705 5711 5716 5717 5718 5720 5719 5723 5726 5727 5729 5727 5725 5727 5724 5721 5728 5731 5724 5722 5736 5756 5764 5763 5762 5759 5757 5758 5759 5760 5761 5760 5760 5759 5758 5758 5756
5572 5574 5576 5578 5580 5583 5587 5593 5596 5600 5604 5604 5607 5613 5617 5620 5625 5629 5631 5632 5634 5640 5644 5647 5650 5651 5652 5654 5656 5659 5662 5667 5671 5673 5677 5682 5684 5686 5688 5689 5691 5692 5693 5694 5695 5694 5692 5693 5696 5697 5698 5702 5708 5712 5711 5711 5713 5712 5716 5720 5720 5721 5721 5719 5717 5714 5716 5723 5721 5718 5722 5729 5742 5753 5754 5754 5755 5753 5752 5753 5753 5754 5753 5753 5752 5751 5751 5751
5565 5568 5571 5573 5575 5577 5582 5587 5590 5595 5598 5598 5601 5606 5609 5613 5618 5620 5622 5625 5630 5634 5637 5639 5641 5643 5645 5649 5651 5653 5657 5662 5664 5667 5673 5676 5677 5679 5681 5682 5684 5685 5687 5688 5688 5687 5685 5687 5692 5693 5694 5699 5704 5706 5704 5703 5704 5706 5708 5711 5712 5713 5713 5710 5707 5709 5716 5713 5708 5717 5725 5722 5728 5742 5746 5749 5752 5749 5746 5746 5746 5746 5746 5745 5744 5744 5746 5747
5560 5564 5566 5567 5568 5572 5578 5584 5588 5591 5592 5591 5594 5599 5602 5605 5609 5612 5616 5621 5624 5625 5627 5629 5633 5637 5641 5644 5646 5647 5650 5653 5655 5661 5666 5669 5670 5672 5673 5675 5677 5679 5681 5681 5681 5681 5680 5682 5688 5688 5688 5693 5697 5699 5699 5697 5697 5700 5701 5703 5705 5705 5705 5703 5702 5708 5712 5705 5702 5716 5721 5715 5719 5731 5737 5743 5746 5743 5741 5739 5737 5737 5738 5738 5738 5738 5739 5739
5554 5558 5560 5561 5563 5568 5574 5578 5581 5582 5583 5584 5588 5592 5595 5599 5603 5606 5610 5613 5614 5616 5618 5622 5628 5633 5636 5638 5639 5640 5642 5644 5648 5654 5659 5661 5661 5662 5665 5668 5671 5672 5674 5674 5675 5675 5674 5677 5683 5681 5679 5685 5689 5692 5694 5691 5690 5692 5693 5695 5697 5698 5699 5699 5700 5704 5705 5700 5700 5708 5709 5708 5714 5723 5729 5735 5737 5735 5733 5730 5728 5729 5731 5732 5731 5730 5730 5729
5548 5552 5554 5555 5557 5562 5567 5570 5572 5573 5575 5577 5580 5585 5589 5594 5598 5600 5602 5603 5606 5610 5612 5616 5623 5627 5627 5629 5630 5632 5636 5639 5641 5646 5651 5651 5652 5654 5657 5660 5664 5665 5665 5666 5667 5667 5667 5671 5676 5675 5672 5676 5683 5686 5687 5685 5684 5684 5684 5686 5689 5691 5694 5695 5696 5699 5698 5694 5697 5700 5697 5700 5712 5718 5719 5723 5727 5725 5722 5721 5722 5723 5722 5722 5721 5720 5719 5718
5541 5544 5546 5546 5550 5555 5559 5562 5564 5565 5567 5569 5575 5582 5585 5589 5594 5595 5594 5595 5599 5604 5606 5611 5617 5617 5617 5619 5621 5623 5629 5631 5634 5640 5642 5640 5643 5646 5648 5652 5655 5655 5656 5659 5659 5659 5661 5663 5668 5668 5664 5667 5677 5680 5678 5679 5676 5672 5674 5680 5685 5688 5689 5690 5691 5692 5691 5690 5692 5691 5688 5693 5708 5713 5709 5709 5714 5714 5712 5712 5713 5714 5714 5712 5709 5708 5708 5707
5533 5535 5537 5539 5542 5547 5550 5553 5555 5555 5558 5566 5573 5579 5580 5583 5587 5587 5585 5588 5594 5598 5601 5605 5608 5608 5608 5611 5612 5616 5621 5623 5627 5632 5632 5632 5635 5637 5638 5642 5646 5646 5647 5651 5651 5652 5654 5656 5660 5661 5656 5660 5671 5673 5670 5670 5662 5658 5669 5681 5684 5684 5683 5682 5682 5684 5687 5687 5684 5681 5683 5689 5699 5702 5699 5702 5706 5705 5704 5706 5706 5705 5705 5701 5697 5697 5698 5698